Volver al catálogo

DELTA 1 DEB

ActivoSSO
NORAD 42657·DEBRIS·🇺🇸 United States

Lanzado Jun 12, 1975 desde Vandenberg Space Force Base

Loading…

Próximos Pases (próximas 24 horas)

TLE

ActualizadoSource: Space-Track

Época: Sep 12, 2026, 12:10 UTC

1 42657U 75052MS  26255.50739549  .00000010  00000-0  78046-4 0  9995
2 42657  99.6594 152.8476 0045810 128.9761 231.5471 13.54523011633003

Sigue DELTA 1 DEB en tiempo real con AllMySat

Download on the App Store